FW4279 Weather Reports


time (UTC)temp
C
wind
direction
speed
KPH
gust
KPH
rain 1hr
cm
rain 24hr
cm
rain mn
cm
humidity
%
barometer
mb
20260506185045 18 298 8.0 16.1 0.00 0.00 0.00 34 1017.1
20260506184551 17 3 3.2 16.1 0.00 0.00 0.00 32 1017.1
20260506184045 17 337 6.4 19.3 0.00 0.00 0.00 34 1017.2
20260506183544 17 317 6.4 17.7 0.00 0.00 0.00 33 1017.2
20260506183054 17 330 0.0 12.9 0.00 0.00 0.00 35 1017.2
20260506182543 17 354 3.2 19.3 0.00 0.00 0.00 34 1017.3
20260506182042 17 335 12.9 19.3 0.00 0.00 0.00 33 1017.4
20260506181610 17 11 9.7 19.3 0.00 0.00 0.00 33 1017.4
20260506181041 17 300 1.6 14.5 0.00 0.00 0.00 34 1017.4
20260506180540 17 326 6.4 11.3 0.00 0.00 0.00 35 1017.4
20260506180041 17 210 1.6 12.9 0.00 0.00 0.00 34 1017.4
20260506175540 17 309 6.4 14.5 0.00 0.03 0.00 35 1017.4
20260506175041 16 302 8.0 14.5 0.00 0.03 0.00 35 1017.4
20260506174541 16 299 8.0 14.5 0.00 0.03 0.00 35 1017.5
20260506174036 16 289 6.4 14.5 0.00 0.03 0.00 35 1017.5
20260506173537 16 329 3.2 14.5 0.00 0.03 0.00 36 1017.4
20260506173053 16 301 6.4 14.5 0.00 0.03 0.00 35 1017.4
20260506172536 16 320 4.8 9.7 0.00 0.03 0.00 36 1017.5
20260506172035 16 302 4.8 9.7 0.00 0.03 0.00 36 1017.5
20260506171534 16 293 0.0 9.7 0.00 0.03 0.00 37 1017.4
20260506171033 16 69 0.0 17.7 0.00 0.03 0.00 36 1017.5
20260506170533 16 28 6.4 17.7 0.00 0.03 0.00 37 1017.5
20260506170033 16 72 0.0 8.0 0.00 0.03 0.00 38 1017.5
20260506165532 16 360 1.6 8.0 0.00 0.05 0.00 37 1017.5
20260506165033 16 240 0.0 9.7 0.00 0.05 0.00 38 1017.6
20260506164536 16 290 4.8 9.7 0.00 0.05 0.00 37 1017.5
20260506164029 16 279 0.0 8.0 0.00 0.05 0.00 36 1017.5
20260506163528 16 96 0.0 9.7 0.00 0.05 0.00 38 1017.5
20260506163032 16 16 3.2 9.7 0.00 0.05 0.00 39 1017.6
20260506162526 16 281 0.0 6.4 0.00 0.05 0.00 41 1017.5
20260506162026 15 278 1.6 3.2 0.00 0.05 0.00 39 1017.5
20260506161525 15 266 0.0 8.0 0.00 0.05 0.00 39 1017.5
20260506161025 15 63 3.2 8.0 0.00 0.05 0.00 40 1017.6
20260506160524 15 8 3.2 8.0 0.00 0.05 0.00 42 1017.5
20260506160024 15 338 0.0 4.8 0.00 0.05 0.00 42 1017.6
20260506155522 15 358 0.0 8.0 0.00 0.08 0.00 43 1017.4
20260506155022 15 42 3.2 8.0 0.00 0.08 0.00 44 1017.5
20260506154521 15 122 0.0 6.4 0.00 0.08 0.00 45 1017.4
20260506154021 14 79 0.0 11.3 0.00 0.08 0.00 45 1017.5
20260506153524 14 30 4.8 11.3 0.00 0.08 0.00 44 1017.4
20260506153022 14 103 0.0 6.4 0.00 0.08 0.00 45 1017.4
20260506152519 15 86 0.0 6.4 0.00 0.08 0.00 45 1017.4
20260506152020 14 119 0.0 6.4 0.00 0.08 0.00 46 1017.5
20260506151518 14 47 0.0 4.8 0.00 0.08 0.00 45 1017.5
20260506151015 13 107 1.6 4.8 0.00 0.08 0.00 46 1017.5
20260506150515 13 67 0.0 4.8 0.00 0.08 0.00 47 1017.5
20260506150013 13 32 0.0 6.4 0.00 0.10 0.00 48 1017.5
20260506145513 13 32 1.6 6.4 0.00 0.10 0.00 46 1017.5
20260506145013 13 48 0.0 6.4 0.00 0.10 0.00 48 1017.4
20260506144515 13 106 0.0 3.2 0.00 0.10 0.00 48 1017.5
20260506144011 12 40 0.0 0.0 0.00 0.10 0.00 50 1017.4
20260506143508 12 40 0.0 0.0 0.00 0.10 0.00 50 1017.4
20260506143006 11 40 0.0 0.0 0.00 0.10 0.00 52 1017.3
20260506142506 11 40 0.0 0.0 0.00 0.10 0.00 52 1017.2
20260506142004 11 229 0.0 0.0 0.00 0.10 0.00 52 1017.1
20260506141503 10 228 0.0 0.0 0.00 0.10 0.00 53 1017.0
20260506141007 10 225 0.0 0.0 0.00 0.10 0.00 54 1016.9
20260506140504 10 197 0.0 0.0 0.00 0.10 0.00 57 1016.9
20260506140005 10 197 0.0 0.0 0.00 0.13 0.00 57 1016.9
20260506135502 9 197 0.0 0.0 0.00 0.13 0.00 58 1016.9
20260506135000 9 197 0.0 0.0 0.00 0.13 0.00 61 1016.7
20260506134600 9 197 0.0 0.0 0.00 0.13 0.00 59 1016.6
20260506134102 9 190 0.0 0.0 0.00 0.13 0.00 56 1016.6
20260506133600 8 190 0.0 0.0 0.00 0.13 0.00 57 1016.6
20260506133502 8 190 0.0 0.0 0.00 0.13 0.00 56 1016.6
20260506133059 8 191 0.0 1.6 0.00 0.13 0.00 56 1016.7
20260506132558 8 191 0.0 3.2 0.00 0.13 0.00 57 1016.7
20260506132059 9 153 0.0 3.2 0.00 0.13 0.00 55 1016.6
20260506131557 9 6 0.0 3.2 0.00 0.13 0.00 55 1016.5
20260506131056 9 335 0.0 3.2 0.00 0.13 0.00 55 1016.5
20260506130555 9 23 0.0 6.4 0.00 0.13 0.00 55 1016.3
20260506130057 9 211 0.0 6.4 0.00 0.13 0.00 56 1016.1
20260506125553 9 234 0.0 4.8 0.00 0.15 0.00 54 1016.0
20260506125053 9 206 1.6 8.0 0.00 0.15 0.00 55 1016.0
20260506124553 9 189 3.2 8.0 0.00 0.15 0.00 55 1015.8
20260506124052 9 170 3.2 8.0 0.00 0.15 0.00 56 1015.8
20260506123552 8 219 3.2 8.0 0.00 0.15 0.00 56 1015.7
20260506123053 8 192 3.2 8.0 0.00 0.15 0.00 58 1015.7
20260506122552 8 221 0.0 4.8 0.00 0.15 0.00 59 1015.7
20260506122051 8 245 0.0 6.4 0.00 0.15 0.00 60 1015.7
20260506121551 7 285 1.6 6.4 0.00 0.15 0.00 60 1015.8
20260506121050 7 238 1.6 4.8 0.00 0.15 0.00 63 1015.8
20260506120549 6 178 0.0 0.0 0.00 0.15 0.00 65 1015.8
20260506120048 7 122 0.0 0.0 0.00 0.15 0.00 63 1015.8
20260506115548 7 217 0.0 1.6 0.00 0.15 0.00 62 1015.7
20260506115047 7 181 0.0 6.4 0.00 0.15 0.00 62 1015.7
20260506114548 7 230 0.0 6.4 0.00 0.15 0.00 60 1015.8
20260506114047 7 240 3.2 6.4 0.00 0.15 0.00 59 1015.8
20260506113547 7 195 0.0 0.0 0.00 0.15 0.00 63 1015.7
20260506113046 7 169 0.0 0.0 0.00 0.15 0.00 61 1015.7
20260506112545 8 169 0.0 0.0 0.00 0.15 0.00 58 1015.5
20260506112044 8 242 0.0 0.0 0.00 0.15 0.00 57 1015.6
20260506111545 8 241 0.0 3.2 0.00 0.15 0.00 56 1015.5
20260506111044 8 241 0.0 4.8 0.00 0.15 0.00 56 1015.6
20260506110544 8 236 1.6 6.4 0.00 0.15 0.00 55 1015.6
20260506110044 8 252 3.2 6.4 0.00 0.15 0.00 55 1015.5
20260506105547 8 243 4.8 6.4 0.00 0.15 0.00 55 1015.4
20260506105046 8 246 3.2 6.4 0.00 0.15 0.00 55 1015.4
20260506104543 9 252 3.2 6.4 0.00 0.15 0.00 55 1015.4
20260506104042 9 35 0.0 0.0 0.00 0.15 0.00 55 1015.4
20260506103542 10 34 0.0 1.6 0.00 0.15 0.00 54 1015.4
20260506103051 10 37 0.0 3.2 0.00 0.15 0.00 53 1015.4
20260506102542 10 24 0.0 4.8 0.00 0.15 0.00 53 1015.4
20260506102042 10 125 0.0 4.8 0.00 0.15 0.00 53 1015.4
20260506101541 10 246 0.0 3.2 0.00 0.15 0.00 52 1015.4
20260506101041 10 246 0.0 4.8 0.00 0.15 0.00 51 1015.4
20260506100544 10 295 1.6 6.4 0.00 0.15 0.00 50 1015.4
20260506100040 11 183 1.6 6.4 0.00 0.15 0.00 49 1015.3
20260506095540 11 191 1.6 4.8 0.00 0.15 0.00 49 1015.2
20260506095040 11 221 0.0 8.0 0.00 0.15 0.00 48 1015.2
20260506094541 11 203 3.2 8.0 0.00 0.15 0.00 48 1015.2
20260506094043 11 203 3.2 8.0 0.00 0.15 0.00 49 1015.2
20260506093539 11 206 1.6 11.3 0.00 0.15 0.00 48 1015.2
20260506093038 11 198 3.2 11.3 0.00 0.15 0.00 47 1015.2
20260506092538 10 203 1.6 8.0 0.00 0.15 0.00 48 1015.3
20260506092036 10 215 1.6 6.4 0.00 0.15 0.00 49 1015.3
20260506091536 10 190 1.6 6.4 0.00 0.15 0.00 49 1015.4
20260506091036 10 189 3.2 6.4 0.00 0.15 0.00 49 1015.4
20260506090539 10 212 0.0 8.0 0.00 0.15 0.00 49 1015.4
20260506090035 10 209 3.2 8.0 0.00 0.15 0.00 49 1015.3
20260506085534 10 177 3.2 8.0 0.00 0.15 0.00 50 1015.3
20260506085034 10 213 1.6 6.4 0.00 0.15 0.00 50 1015.4
20260506084537 9 205 1.6 6.4 0.00 0.15 0.00 51 1015.4
20260506084033 8 176 0.0 6.4 0.00 0.15 0.00 53 1015.3
20260506083536 8 204 0.0 3.2 0.00 0.15 0.00 54 1015.2
20260506083033 7 198 0.0 1.6 0.00 0.15 0.00 57 1015.3
20260506082531 7 226 0.0 1.6 0.00 0.15 0.00 57 1015.3
20260506082031 8 226 0.0 6.4 0.00 0.15 0.00 57 1015.3
20260506081531 8 270 1.6 6.4 0.00 0.15 0.00 56 1015.4
20260506081032 8 223 0.0 1.6 0.00 0.15 0.00 57 1015.5
20260506080530 7 149 0.0 1.6 0.00 0.15 0.00 56 1015.6
20260506073524 9 129 1.6 8.0 0.00 0.15 0.00 51 1015.4
20260506073021 10 111 3.2 9.7 0.00 0.15 0.00 50 1015.4
20260506072519 10 44 3.2 9.7 0.00 0.15 0.00 50 1015.5
20260506072022 10 185 0.0 8.0 0.00 0.15 0.00 47 1015.3
20260506071519 10 187 1.6 8.0 0.00 0.15 0.00 47 1015.2
20260506071017 10 205 1.6 6.4 0.00 0.15 0.00 47 1015.2
20260506070517 10 175 0.0 6.4 0.00 0.15 0.00 47 1015.0
20260506062511 10 213 4.8 12.9 0.00 0.15 0.15 46 1014.9
20260506062011 10 215 3.2 16.1 0.00 0.15 0.15 46 1014.9
20260506061511 10 201 4.8 16.1 0.00 0.15 0.15 47 1014.8
20260506061012 10 217 3.2 11.3 0.00 0.15 0.15 48 1014.8
20260506060511 10 230 1.6 11.3 0.00 0.15 0.15 49 1014.8
20260506051006 9 208 3.2 9.7 0.00 0.15 0.15 53 1014.6
20260506050507 9 191 1.6 6.4 0.00 0.15 0.15 53 1014.6
20260506045007 9 214 1.6 11.3 0.00 0.18 0.15 51 1014.4
20260506044506 9 168 3.2 11.3 0.00 0.18 0.15 52 1014.4
20260506044004 9 204 4.8 9.7 0.00 0.18 0.15 52 1014.3
20260506043505 9 212 3.2 8.0 0.00 0.18 0.15 52 1014.4
20260506043003 9 200 1.6 8.0 0.00 0.18 0.15 52 1014.3
20260506042502 9 207 1.6 8.0 0.00 0.18 0.15 52 1014.1
20260506042003 9 215 1.6 8.0 0.00 0.18 0.15 52 1014.1
20260506041500 9 206 1.6 6.4 0.00 0.18 0.15 52 1013.9
20260506041101 9 219 0.0 8.0 0.00 0.18 0.15 52 1014.0
20260506040559 10 226 1.6 8.0 0.00 0.18 0.15 51 1013.9
20260506040058 10 201 1.6 11.3 0.00 0.18 0.15 52 1013.9
20260506035602 10 219 3.2 11.3 0.00 0.28 0.15 51 1013.8
20260506035058 9 205 4.8 8.0 0.00 0.28 0.15 51 1013.8
20260506034613 9 218 1.6 9.7 0.00 0.28 0.15 52 1013.7
20260506034057 9 200 1.6 9.7 0.00 0.28 0.15 52 1013.7
20260506033554 9 185 3.2 11.3 0.00 0.28 0.15 52 1013.5
20260506033053 9 193 3.2 11.3 0.00 0.28 0.15 53 1013.4
20260506032554 9 221 3.2 8.0 0.00 0.28 0.15 53 1013.4
20260506032053 9 159 3.2 8.0 0.00 0.28 0.15 54 1013.2
20260506031550 8 206 0.0 6.4 0.00 0.28 0.15 56 1013.2
20260506031050 8 200 0.0 4.8 0.00 0.28 0.15 56 1013.1
20260506030549 8 198 0.0 4.8 0.00 0.28 0.15 57 1013.1
20260506030047 9 196 0.0 4.8 0.00 0.28 0.15 57 1013.0
20260506025549 9 174 1.6 3.2 0.00 0.43 0.15 57 1013.0
20260506025046 10 192 1.6 3.2 0.00 0.43 0.15 56 1013.0
20260506024605 10 194 0.0 3.2 0.00 0.43 0.15 53 1013.0
20260506024045 11 186 0.0 1.6 0.00 0.43 0.15 51 1012.9
20260506023545 11 293 0.0 3.2 0.00 0.43 0.15 47 1012.8
20260506023043 11 323 0.0 6.4 0.00 0.43 0.15 45 1012.7
20260506022543 12 339 3.2 12.9 0.00 0.43 0.15 44 1012.6
20260506022043 12 11 3.2 12.9 0.00 0.43 0.15 43 1012.5
20260506021542 12 334 8.0 12.9 0.00 0.43 0.15 43 1012.4
20260506021042 12 337 6.4 14.5 0.00 0.43 0.15 43 1012.4
20260506020541 12 328 6.4 14.5 0.00 0.43 0.15 44 1012.2
20260506020041 12 340 3.2 12.9 0.00 0.43 0.15 46 1012.2
20260506015544 12 333 4.8 12.9 0.00 0.71 0.15 45 1012.1
20260506015041 12 330 4.8 8.0 0.00 0.71 0.15 45 1012.0
20260506014541 13 333 3.2 8.0 0.00 0.71 0.15 45 1011.9
20260506014045 13 45 3.2 8.0 0.00 0.71 0.15 43 1011.8
20260506013544 13 340 1.6 11.3 0.00 0.71 0.15 42 1011.7
20260506013058 13 345 8.0 11.3 0.00 0.71 0.15 41 1011.7
20260506012540 13 25 4.8 9.7 0.00 0.71 0.15 40 1011.7
20260506012040 14 360 0.0 6.4 0.00 0.71 0.15 39 1011.6
20260506011542 14 15 1.6 9.7 0.00 0.71 0.15 37 1011.6
20260506011040 14 7 4.8 11.3 0.00 0.71 0.15 36 1011.6
20260506010539 15 66 4.8 11.3 0.00 0.71 0.15 36 1011.5
20260506010039 14 339 0.0 8.0 0.00 0.71 0.15 37 1011.5
20260506005539 14 304 1.6 4.8 0.00 0.71 0.15 39 1011.5
20260506005037 14 354 0.0 9.7 0.00 0.71 0.15 38 1011.5
20260506004538 13 2 1.6 11.3 0.00 0.71 0.15 39 1011.4
20260506004038 14 288 6.4 11.3 0.00 0.71 0.15 38 1011.4
20260506003538 14 313 3.2 9.7 0.00 0.71 0.15 38 1011.4
20260506003039 15 324 1.6 6.4 0.00 0.71 0.15 35 1011.3
20260506002536 14 203 0.0 3.2 0.00 0.71 0.15 38 1011.4
20260506002037 14 160 1.6 11.3 0.00 0.71 0.15 38 1011.4
20260506001538 13 314 1.6 12.9 0.00 0.71 0.15 37 1011.4
20260506001035 13 312 4.8 12.9 0.00 0.71 0.15 38 1011.3
20260506000637 13 321 4.8 9.7 0.00 0.71 0.15 39 1011.2
20260506000034 13 266 4.8 9.7 0.00 0.71 0.15 37 1011.2
20260505235534 13 28 0.0 9.7 0.00 0.71 0.15 38 1011.2
20260505235034 13 19 3.2 11.3 0.00 0.71 0.15 38 1011.2
20260505234537 13 341 6.4 11.3 0.00 0.71 0.15 36 1011.1
20260505234034 13 340 0.0 9.7 0.00 0.71 0.15 42 1011.2
20260505233535 13 275 1.6 12.9 0.00 0.71 0.15 40 1011.1
20260505233032 13 9 0.0 12.9 0.00 0.71 0.15 39 1011.2
20260505232532 13 344 4.8 9.7 0.00 0.71 0.15 39 1011.2
20260505232032 13 294 3.2 12.9 0.00 0.71 0.15 41 1011.1
20260505231535 14 293 4.8 12.9 0.00 0.71 0.15 39 1011.2
20260505231033 13 90 0.0 3.2 0.00 0.71 0.15 41 1011.3
20260505230528 13 85 0.0 4.8 0.00 0.71 0.15 42 1011.3
20260505230048 13 52 1.6 14.5 0.00 0.71 0.15 44 1011.4
20260505225528 12 102 0.0 14.5 0.00 0.71 0.15 44 1011.4
20260505225130 12 321 8.0 14.5 0.00 0.71 0.15 43 1011.4
20260505224528 12 337 4.8 11.3 0.00 0.71 0.15 45 1011.4
20260505224027 12 320 1.6 9.7 0.00 0.71 0.15 46 1011.4
20260505223527 12 295 3.2 9.7 0.00 0.71 0.15 46 1011.6
20260505223029 12 70 0.0 11.3 0.00 0.71 0.15 47 1011.5
20260505222531 12 4 1.6 14.5 0.00 0.71 0.15 45 1011.6
20260505222027 12 28 6.4 14.5 0.00 0.71 0.15 45 1011.6
20260505221533 13 20 4.8 9.7 0.00 0.71 0.15 44 1011.6
20260505221026 13 39 1.6 6.4 0.00 0.71 0.15 45 1011.6
20260505220524 13 194 0.0 6.4 0.00 0.71 0.15 46 1011.7
20260505220024 12 249 0.0 8.0 0.00 0.71 0.15 48 1011.7
20260505215527 12 256 3.2 12.9 0.00 0.71 0.15 47 1011.7
20260505215024 12 283 6.4 12.9 0.00 0.71 0.15 46 1011.7
20260505214525 12 342 3.2 12.9 0.00 0.71 0.15 45 1011.8
20260505214023 12 338 1.6 11.3 0.00 0.71 0.15 50 1011.8
20260505213522 12 322 4.8 9.7 0.00 0.71 0.15 52 1011.8
20260505213025 12 27 3.2 8.0 0.00 0.71 0.15 49 1011.8
20260505212523 12 233 1.6 4.8 0.00 0.71 0.15 51 1011.9
20260505212019 11 173 0.0 8.0 0.00 0.71 0.15 50 1011.8
20260505211519 11 321 0.0 8.0 0.00 0.71 0.15 51 1011.9
20260505211019 11 11 3.2 6.4 0.00 0.71 0.15 51 1011.9
20260505210518 11 179 0.0 8.0 0.00 0.71 0.15 55 1012.0
20260505210015 11 17 4.8 12.9 0.00 0.71 0.15 58 1012.1
20260505205514 10 309 6.4 12.9 0.00 0.71 0.15 59 1012.1
20260505205015 10 294 3.2 9.7 0.00 0.71 0.15 63 1012.1
20260505204517 10 302 3.2 12.9 0.00 0.71 0.15 62 1012.1
20260505204014 11 337 4.8 12.9 0.00 0.71 0.15 65 1012.0
20260505203514 10 207 0.0 6.4 0.00 0.71 0.15 61 1012.0
20260505203015 10 264 3.2 8.0 0.00 0.71 0.15 62 1012.0
20260505202514 10 274 3.2 8.0 0.00 0.71 0.15 61 1012.0
20260505202013 10 291 3.2 11.3 0.00 0.71 0.15 61 1012.1
20260505201512 10 299 6.4 11.3 0.00 0.71 0.15 62 1012.1
20260505201012 10 293 1.6 8.0 0.00 0.71 0.15 61 1012.2
20260505200510 10 118 3.2 9.7 0.00 0.71 0.15 63 1012.2
20260505200023 9 237 1.6 9.7 0.00 0.71 0.15 65 1012.2
20260505195508 10 281 0.0 8.0 0.00 0.71 0.15 65 1012.3
20260505195008 9 192 1.6 8.0 0.00 0.71 0.15 67 1012.4
20260505194508 8 335 0.0 4.8 0.00 0.71 0.15 68 1012.5
20260505194009 8 297 1.6 4.8 0.00 0.71 0.15 69 1012.5
20260505193509 8 278 0.0 6.4 0.00 0.71 0.15 68 1012.5
20260505193010 8 321 1.6 6.4 0.00 0.71 0.15 69 1012.5
20260505192510 8 24 0.0 4.8 0.00 0.71 0.15 70 1012.3
20260505192006 8 101 1.6 4.8 0.00 0.71 0.15 69 1012.3
20260505191507 8 235 1.6 9.7 0.00 0.71 0.15 69 1012.3
20260505191008 8 240 0.0 9.7 0.00 0.71 0.15 67 1012.2
20260505190507 8 72 3.2 9.7 0.00 0.71 0.15 68 1012.2
20260505190003 9 125 1.6 6.4 0.00 0.71 0.15 69 1012.1
20260505185503 9 150 1.6 6.4 0.00 0.71 0.15 69 1012.1